TimeEST,TemperatureF,Dew PointF,Humidity,Sea Level PressureIn,VisibilityMPH,Wind Direction,Wind SpeedMPH,Gust SpeedMPH,PrecipitationIn,Events,Conditions,WindDirDegrees,DateUTC
12:35 AM,12.2,10.4,92,29.74,10.0,NNE,3.5,-,N/A,,Mostly Cloudy,20,2013-01-22 05:35:00
12:55 AM,12.2,10.4,92,29.74,8.0,Calm,Calm,-,N/A,,Overcast,0,2013-01-22 05:55:00
1:15 AM,12.2,10.4,92,29.74,10.0,NW,3.5,-,N/A,,Overcast,320,2013-01-22 06:15:00
1:35 AM,12.2,10.4,92,29.74,10.0,North,4.6,-,N/A,,Overcast,360,2013-01-22 06:35:00
1:55 AM,12.2,10.4,92,29.74,10.0,North,4.6,-,N/A,,Overcast,360,2013-01-22 06:55:00
2:15 AM,12.2,8.6,85,29.75,10.0,NNW,5.8,-,N/A,,Overcast,340,2013-01-22 07:15:00
2:55 AM,10.4,8.6,92,29.75,4.0,NNW,6.9,-,N/A,,Overcast,330,2013-01-22 07:55:00
3:15 AM,10.4,8.6,92,29.76,5.0,North,6.9,-,N/A,,Overcast,350,2013-01-22 08:15:00
3:35 AM,10.4,6.8,85,29.76,3.0,North,5.8,-,N/A,,Overcast,350,2013-01-22 08:35:00
3:55 AM,8.6,5.0,85,29.77,5.0,North,5.8,-,N/A,,Overcast,350,2013-01-22 08:55:00
4:15 AM,8.6,6.8,92,29.77,8.0,North,6.9,-,N/A,,Overcast,360,2013-01-22 09:15:00
4:35 AM,8.6,5.0,85,29.78,8.0,North,6.9,-,N/A,,Overcast,350,2013-01-22 09:35:00
4:55 AM,8.6,5.0,85,29.79,2.5,NNW,6.9,-,N/A,,Overcast,330,2013-01-22 09:55:00
5:15 AM,8.6,5.0,85,29.80,3.0,North,6.9,-,N/A,,Overcast,360,2013-01-22 10:15:00
5:35 AM,8.6,3.2,79,29.80,4.0,North,5.8,-,N/A,,Overcast,360,2013-01-22 10:35:00
5:55 AM,8.6,3.2,79,29.81,8.0,Calm,Calm,-,N/A,,Overcast,0,2013-01-22 10:55:00
6:15 AM,8.6,5.0,85,29.81,10.0,Calm,Calm,-,N/A,,Overcast,0,2013-01-22 11:15:00
6:35 AM,8.6,5.0,85,29.82,10.0,Calm,Calm,-,N/A,,Overcast,0,2013-01-22 11:35:00
6:55 AM,8.6,6.8,92,29.82,9.0,Calm,Calm,-,N/A,,Overcast,0,2013-01-22 11:55:00
7:15 AM,8.6,5.0,85,29.83,10.0,Calm,Calm,-,N/A,,Mostly Cloudy,0,2013-01-22 12:15:00
7:55 AM,8.6,6.8,92,29.83,9.0,Calm,Calm,-,N/A,,Overcast,0,2013-01-22 12:55:00
8:15 AM,8.6,6.8,92,29.84,8.0,Calm,Calm,-,N/A,,Overcast,0,2013-01-22 13:15:00
8:35 AM,8.6,6.8,92,29.84,5.0,Calm,Calm,-,N/A,,Overcast,0,2013-01-22 13:35:00
8:55 AM,10.4,6.8,85,29.84,7.0,Calm,Calm,-,N/A,,Mostly Cloudy,0,2013-01-22 13:55:00
9:15 AM,10.4,6.8,85,29.85,10.0,Calm,Calm,-,N/A,,Partly Cloudy,0,2013-01-22 14:15:00
9:35 AM,12.2,6.8,79,29.85,10.0,Calm,Calm,-,N/A,,Scattered Clouds,0,2013-01-22 14:35:00
9:55 AM,12.2,6.8,79,29.86,7.0,West,3.5,-,N/A,,Mostly Cloudy,270,2013-01-22 14:55:00
10:35 AM,12.2,3.2,67,29.85,10.0,WSW,5.8,-,N/A,,Mostly Cloudy,240,2013-01-22 15:35:00
10:55 AM,14.0,3.2,62,29.85,10.0,WSW,6.9,16.1,N/A,,Mostly Cloudy,250,2013-01-22 15:55:00
11:15 AM,14.0,6.8,73,29.85,10.0,West,13.8,-,N/A,,Scattered Clouds,260,2013-01-22 16:15:00
11:35 AM,14.0,3.2,62,29.85,10.0,West,10.4,18.4,N/A,,Mostly Cloudy,260,2013-01-22 16:35:00
11:55 AM,14.0,5.0,67,29.85,10.0,West,9.2,-,N/A,,Overcast,270,2013-01-22 16:55:00
12:15 PM,15.8,5.0,62,29.84,10.0,SW,11.5,16.1,N/A,,Overcast,220,2013-01-22 17:15:00
12:35 PM,14.0,3.2,62,29.83,10.0,WSW,11.5,20.7,N/A,,Overcast,250,2013-01-22 17:35:00
12:55 PM,15.8,3.2,58,29.82,10.0,West,11.5,19.6,N/A,,Mostly Cloudy,280,2013-01-22 17:55:00
1:35 PM,15.8,1.4,53,29.83,10.0,WNW,8.1,-,N/A,,Overcast,290,2013-01-22 18:35:00
1:55 PM,15.8,-0.4,49,29.84,10.0,WNW,5.8,-,N/A,,Overcast,290,2013-01-22 18:55:00
2:15 PM,15.8,1.4,53,29.84,10.0,WNW,10.4,16.1,N/A,,Overcast,300,2013-01-22 19:15:00
2:35 PM,15.8,-0.4,49,29.85,10.0,WNW,12.7,-,N/A,,Overcast,290,2013-01-22 19:35:00
2:55 PM,14.0,6.8,73,29.86,7.0,WNW,10.4,-,N/A,,Mostly Cloudy,290,2013-01-22 19:55:00
3:15 PM,15.8,1.4,53,29.86,10.0,West,15.0,23.0,N/A,,Mostly Cloudy,270,2013-01-22 20:15:00
3:35 PM,14.0,3.2,62,29.88,3.0,WNW,11.5,23.0,N/A,,Mostly Cloudy,300,2013-01-22 20:35:00
3:55 PM,12.2,5.0,73,29.89,2.5,WNW,12.7,19.6,N/A,,Mostly Cloudy,290,2013-01-22 20:55:00
4:15 PM,12.2,-0.4,57,29.89,10.0,West,11.5,20.7,N/A,,Overcast,280,2013-01-22 21:15:00
4:55 PM,12.2,-2.2,53,29.92,10.0,North,15.0,20.7,N/A,,Mostly Cloudy,350,2013-01-22 21:55:00
5:15 PM,10.4,3.2,73,29.93,10.0,North,10.4,-,N/A,,Mostly Cloudy,350,2013-01-22 22:15:00
5:35 PM,8.6,1.4,73,29.95,10.0,North,5.8,-,N/A,,Scattered Clouds,350,2013-01-22 22:35:00
5:55 PM,8.6,3.2,79,29.96,10.0,NNW,4.6,-,N/A,,Clear,330,2013-01-22 22:55:00
6:15 PM,8.6,1.4,73,29.96,10.0,NW,5.8,-,N/A,,Mostly Cloudy,320,2013-01-22 23:15:00
6:35 PM,8.6,-0.4,67,29.97,10.0,WNW,8.1,-,N/A,,Mostly Cloudy,300,2013-01-22 23:35:00
6:55 PM,8.6,-2.2,62,29.98,10.0,WNW,5.8,-,N/A,,Partly Cloudy,300,2013-01-22 23:55:00
7:15 PM,8.6,-2.2,62,29.98,10.0,WNW,6.9,-,N/A,,Partly Cloudy,300,2013-01-23 00:15:00
7:35 PM,8.6,-2.2,62,29.98,10.0,NW,4.6,-,N/A,,Partly Cloudy,320,2013-01-23 00:35:00
7:55 PM,8.6,-2.2,62,29.98,10.0,NW,5.8,-,N/A,,Scattered Clouds,310,2013-01-23 00:55:00
8:15 PM,8.6,-2.2,62,29.98,10.0,NW,4.6,-,N/A,,Overcast,310,2013-01-23 01:15:00
8:35 PM,8.6,-2.2,62,29.98,10.0,WNW,9.2,-,N/A,,Overcast,300,2013-01-23 01:35:00
9:15 PM,8.6,-5.8,52,29.98,10.0,NW,6.9,-,N/A,,Overcast,310,2013-01-23 02:15:00
9:55 PM,6.8,-4.0,61,29.99,10.0,NW,6.9,-,N/A,,Overcast,310,2013-01-23 02:55:00
10:15 PM,6.8,-4.0,61,29.99,10.0,WNW,8.1,-,N/A,,Mostly Cloudy,300,2013-01-23 03:15:00
10:35 PM,6.8,-2.2,67,30.00,10.0,WNW,8.1,-,N/A,,Scattered Clouds,290,2013-01-23 03:35:00
10:55 PM,6.8,-5.8,56,30.01,10.0,West,8.1,-,N/A,,Mostly Cloudy,280,2013-01-23 03:55:00
11:15 PM,6.8,-7.6,52,30.00,10.0,WNW,10.4,-,N/A,,Overcast,290,2013-01-23 04:15:00
11:35 PM,6.8,-7.6,52,30.00,10.0,WNW,9.2,-,N/A,,Mostly Cloudy,290,2013-01-23 04:35:00
11:55 PM,6.8,-11.2,44,30.00,10.0,West,11.5,19.6,N/A,,Overcast,280,2013-01-23 04:55:00